Regional Weather Roundup
Issued by NWS

Home | Current Version | Previous Version | Graphics & Text | Print | Product List | Glossary On
Versions: 1 2 3 4 5 6 7 8 9 10 11 12 13 14 15 16 17 18 19 20 21 22 23 24 25 26 27 28 29 30 31 32 33 34 35 36 37 38 39 40 41 42 43 44 45 46 47 48 49 50
000
ASUS43 KIND 242209
RWRIN

WEATHER ROUNDUP FOR INDIANA
NATIONAL WEATHER SERVICE INDIANAPOLIS IN
500 PM EST WED DEC 24 2014

NOTE: "FAIR" INDICATES FEW OR NO CLOUDS BELOW 12,000 FEET WITH NO
SIGNIFICANT WEATHER AND/OR OBSTRUCTIONS TO VISIBILITY.

* - STATION DOES NOT REPORT WEATHER SUCH AS PRECIPITATION OR FOG.

+ - STATION NOT QUALITY CONTROLLED BY THE NATIONAL WEATHER SERVICE.
    USE DATA WITH CAUTION...ESPECIALLY DEWPOINT AND RELATIVE
    HUMIDITY OBSERVATIONS.

INZ001>003-010>013-019-020-242300-
NORTHWEST INDIANA

CITY           SKY/WX    TMP DP  RH WIND       PRES   REMARKS
GARY /AIRPORT/ RAIN      39  34  81 W8        29.51R
KNOX *+        CLOUDY    37  32  84 W14G22    29.48S
LA PORTE +     RAIN      37  37 100 W7        29.49S
MICHIGAN CITY+ RAIN      36  34  93 W6        29.49S
MONTICELLO +   LGT RAIN  36  35  94 W13G18    29.52R
RENSSELAER +   LGT RAIN  36  36 100 W12       29.53S
VALPARAISO     LGT RAIN  36  35  96 W20       29.50R FOG

$$

LMZ046-743>745-242300-
SOUTHERN LAKE MICHIGAN

STATION/POSITION TIME  TEMP WIND        PRES
                       AIR  DIR/SP/G
                 (UTC) (F)  (DEG/KT/KT) (MB)
MICHIGAN CITY    2200   37  240/ 11/ 12   N/A

$$

INZ004-005-014>016-021>024-242300-
NORTH CENTRAL INDIANA

CITY           SKY/WX    TMP DP  RH WIND       PRES   REMARKS
GOSHEN         LGT RAIN  38  35  89 W12       29.45R
LOGANSPORT +     N/A     36  34  93 MISG        N/A
PERU/GRISSOM   CLOUDY    38  38 100 W17G24    29.49R
ROCHESTER +    RAIN      37  37 100 W10G18    29.48R
SOUTH BEND     NOT AVBL
WARSAW +       LGT RAIN  37  36  93 W14       29.45R

$$

INZ006>009-017-018-025>027-242300-
NORTHEAST INDIANA

CITY           SKY/WX    TMP DP  RH WIND       PRES   REMARKS
ANGOLA *+      CLOUDY    36  36 100 NW12      29.35S
AUBURN +       LGT RAIN  37  34  87 W18       29.39F
FORT WAYNE     LGT RAIN  38  35  89 W16G28    29.41R
HUNTINGTON +   LGT RAIN  37  36  95 W13G26    29.43F

$$

INZ028-029-035-036-043>045-051>053-242300-
WEST CENTRAL INDIANA

CITY           SKY/WX    TMP DP  RH WIND       PRES   REMARKS
GREENCASTLE +  CLOUDY    36  32  87 W5        29.58R
LAFAYETTE      LGT RAIN  36  34  92 W13       29.55R
TERRE HAUTE    LGT RAIN  38  35  89 W10       29.61R

$$

INZ030>032-037>040-046>048-054>057-064-065-242300-
CENTRAL INDIANA

CITY           SKY/WX    TMP DP  RH WIND       PRES   REMARKS
CP ATTERBURY + CLOUDY    39  36  87 MISG      29.57R
COLUMBUS       CLOUDY    39  37  93 W17       29.57R
FRANKFORT +    LGT RAIN  37  37 100 SW17      29.55R
INDIANAPOLIS   LGT RAIN  37  35  92 W17       29.55R
-EAGLE CREEK   LGT RAIN  38  35  89 W14G24    29.54R
KOKOMO *+      CLOUDY    37  36  93 W21G28    29.50R
MARION +       CLOUDY    37  37  98 W20       29.49R
MT COMFORT *+  CLOUDY    39  39 100 W18       29.53R
SHELBYVILLE    CLOUDY    41  36  82 W20       29.53R
ZIONSVILLE +   DRIZZLE   38  34  85 W20       29.54R

$$

INZ033-034-041-042-049-050-058-059-242300-
EAST CENTRAL INDIANA

CITY           SKY/WX    TMP DP  RH WIND       PRES   REMARKS
MUNCIE         LGT RAIN  39  36  89 W20G28    29.48R

$$

INZ060-061-067>069-081>083-085>088-242300-
SOUTHWEST INDIANA

CITY           SKY/WX    TMP DP  RH WIND       PRES   REMARKS
EVANSVILLE     CLOUDY    42  36  79 W10G20    29.70R
HUNTINGBURG *+ CLOUDY    41  36  81 W20G25    29.67R
WASHINGTON +   CLOUDY    39  35  84 W9        29.64R

$$

INZ062-063-066-070>080-084-089>092-242300-
SOUTH CENTRAL AND SOUTHEAST INDIANA

CITY           SKY/WX    TMP DP  RH WIND       PRES   REMARKS
BLOOMINGTON    LGT RAIN  39  36  89 W15G24    29.59R

$$




USA.gov is the U.S. government's official web portal to all federal, state and local government web resources and services.